GFSSW_sfc_dewp_057.txt.gz
Dewpoint
58 57 57 57 58 58 58 58 58 59 59 60 60 60 61 60 59 51 28 41 45 58 54 31 29 28 29 29 27 24 18 16 17 17 15 20 21 21 23 22 27 32 29 41 46
57 57 57 57 57 58 58 58 58 58 58 59 59 60 60 60 47 35 49 57 58 56 33 27 23 25 23 27 27 22 19 16 18 16 18 20 19 19 20 19 23 26 30 44 52
57 57 57 56 57 57 57 57 58 58 58 58 59 60 60 57 34 32 54 56 57 48 33 28 24 21 19 23 24 22 18 16 16 18 21 20 19 20 19 19 20 21 25 38 51
56 56 56 56 56 56 56 57 57 57 58 58 59 60 59 48 18 37 54 56 55 40 32 26 23 19 16 17 20 14 16 16 22 28 23 21 21 20 21 20 23 21 22 31 46
57 56 56 56 56 56 56 57 57 57 57 58 59 60 50 33 30 41 54 51 39 34 28 24 20 18 15 16 18 16 17 21 25 26 24 24 22 21 21 22 23 25 27 28 37
56 57 56 56 56 56 56 56 57 57 57 57 59 59 38 23 43 38 36 36 33 29 26 24 18 19 17 18 18 20 22 21 25 24 24 24 21 24 21 22 21 23 25 27 31
57 57 56 55 54 55 55 55 56 56 57 57 59 47 30 30 43 37 35 35 35 30 28 30 26 25 22 23 27 23 18 20 20 22 22 25 20 19 19 24 23 22 23 24 26
57 57 56 55 55 55 55 55 56 56 56 57 58 41 21 41 43 35 34 33 33 33 33 32 31 30 28 28 24 20 20 15 18 23 25 26 12 18 19 20 22 21 21 23 25
57 57 57 56 56 56 56 56 56 56 56 56 41 34 19 47 40 39 34 30 33 32 31 29 30 28 27 21 19 21 7 12 18 24 23 24 19 20 24 23 20 19 19 20 23
58 57 57 56 56 56 56 56 55 54 49 42 37 26 28 29 42 38 34 32 30 31 28 27 24 21 21 17 7 11 14 14 15 22 24 22 22 20 21 24 24 22 21 24 24
57 58 57 57 56 56 55 41 32 28 34 23 24 22 29 39 41 37 35 30 28 27 23 28 17 16 15 16 15 14 14 12 12 22 23 20 18 17 18 19 19 20 22 21 23
54 56 58 57 56 55 54 33 38 44 28 32 30 29 35 39 35 37 35 30 30 25 28 24 21 19 24 23 22 19 15 14 15 23 24 20 19 21 20 20 20 20 20 21 22
52 52 55 58 56 55 53 43 49 46 30 29 33 28 29 37 29 34 33 32 28 25 26 17 19 24 24 23 21 20 18 14 15 24 23 24 18 13 14 21 22 22 22 21 22
51 52 56 57 54 54 52 53 50 47 36 33 29 34 34 35 27 38 34 31 29 24 22 21 24 25 24 19 20 15 19 20 22 21 11 21 9 8 9 9 17 20 22 22 24
50 50 51 55 54 52 53 53 51 47 29 33 32 38 36 28 31 35 35 33 26 27 26 20 27 26 23 19 22 20 26 24 25 24 23 19 18 11 10 15 15 16 21 22 25
48 48 49 55 54 54 54 53 52 40 32 32 34 34 31 29 31 34 33 33 32 28 29 26 30 28 24 28 26 29 28 27 28 25 18 16 17 9 5 5 12 17 19 22 26
46 47 46 48 51 55 55 50 40 33 38 33 31 33 31 29 29 31 30 28 23 20 19 24 25 29 30 27 29 27 21 14 17 23 16 22 20 14 13 14 16 18 20 21 28
44 45 46 43 52 55 52 44 32 37 35 36 34 32 30 30 27 31 30 26 26 21 18 18 17 26 29 25 23 27 20 15 17 16 13 26 18 12 19 19 22 24 25 28 29
43 42 42 44 48 53 47 34 34 35 34 36 34 30 29 31 30 28 26 26 26 26 19 13 16 26 28 25 22 25 25 23 23 31 21 11 11 11 25 23 21 20 23 24 27
40 39 36 45 49 51 42 36 32 32 35 36 32 33 30 29 28 27 26 26 27 29 27 19 16 26 28 29 28 25 23 21 21 28 20 9 11 11 18 16 19 24 25 29 31
39 34 38 44 49 46 36 35 32 35 37 35 31 32 34 34 34 30 27 26 26 27 28 24 22 26 28 25 22 24 22 24 21 22 19 16 11 11 14 18 19 26 30 30 32
38 26 42 48 40 40 36 35 38 33 36 35 35 33 33 34 33 34 32 31 29 30 27 28 25 23 22 27 28 24 20 21 21 23 21 21 18 21 19 21 29 27 28 30 32
32 32 41 47 27 32 33 33 34 36 35 33 33 34 33 32 34 35 33 35 33 33 32 32 32 31 26 27 28 26 24 25 23 28 28 25 18 19 20 23 25 28 30 30 32
34 27 34 41 36 27 27 28 29 33 33 36 34 33 32 32 35 34 35 35 36 36 40 40 37 35 29 26 27 24 24 25 24 25 25 23 20 20 21 23 24 28 31 30 31
35 28 29 29 31 32 25 21 24 24 32 32 33 34 33 31 31 30 31 32 37 37 34 38 33 36 34 33 31 30 27 27 25 25 24 24 23 23 24 25 26 27 28 28 28
34 29 32 29 28 29 29 24 23 21 26 26 27 26 32 30 28 27 32 35 31 35 36 37 34 33 33 33 32 31 31 29 28 27 26 25 24 25 26 29 28 29 30 30 30
39 38 34 26 27 28 29 26 26 25 24 23 24 25 28 28 31 33 34 36 38 37 37 36 35 33 30 31 31 31 35 32 32 32 30 28 29 31 30 29 30 31 32 32 32

GFSSW_sfc_dewp_060.txt.gz
Dewpoint
56 57 57 57 58 58 58 58 58 58 59 59 59 60 61 60 58 52 38 45 49 57 53 34 33 32 36 37 35 32 25 22 21 20 20 22 22 23 24 23 27 33 31 42 48
57 57 57 57 57 57 58 57 58 58 58 58 59 60 60 60 53 41 50 57 57 56 39 29 26 29 29 34 33 28 27 23 20 18 19 21 20 21 20 21 22 29 36 46 51
57 57 56 56 56 57 57 57 57 57 58 58 59 60 60 58 43 37 56 57 57 50 37 31 27 25 28 30 29 27 25 19 18 25 22 22 19 20 19 19 20 23 32 46 51
56 56 56 55 56 56 56 56 57 57 57 58 58 60 59 52 33 40 56 56 56 44 37 32 28 27 27 25 25 22 21 19 29 31 26 23 23 20 20 21 24 25 30 44 50
57 56 56 55 55 56 56 56 56 57 57 57 59 59 53 42 38 41 54 50 41 37 33 28 24 25 23 20 24 20 19 22 27 28 26 26 23 22 22 22 24 25 28 36 47
57 57 56 56 56 56 55 56 56 57 57 57 59 59 46 31 45 38 39 40 35 32 29 30 26 24 22 21 23 25 23 23 27 26 26 26 23 24 23 24 22 25 25 28 35
57 56 56 56 55 55 55 56 55 56 56 57 58 50 36 37 44 39 38 39 38 33 32 35 31 32 27 27 30 27 23 22 22 24 26 28 24 21 22 24 23 22 24 25 28
57 57 56 56 56 56 56 56 56 56 56 57 58 47 33 44 44 36 36 37 37 35 35 36 34 34 33 30 26 24 22 20 20 24 28 27 15 18 20 18 22 22 21 23 25
57 57 56 56 56 56 56 57 57 56 56 57 48 40 32 48 41 38 36 34 35 35 34 29 37 32 31 24 22 21 13 13 23 24 26 26 22 26 24 22 20 20 20 20 23
58 57 57 57 56 56 56 57 56 55 53 44 35 34 33 35 44 39 36 36 35 35 32 35 30 28 25 20 13 17 16 13 16 23 26 24 24 23 24 25 25 24 23 22 22
57 58 57 57 56 57 55 48 40 38 38 30 29 26 32 40 43 40 38 33 33 31 24 30 22 19 18 18 17 18 15 15 16 24 25 23 22 20 19 19 21 22 23 22 22
53 54 56 58 57 57 55 40 44 47 32 33 31 31 37 40 37 37 37 31 31 26 28 26 21 20 26 26 21 22 19 16 17 25 24 22 20 20 20 20 21 21 21 21 22
53 53 54 58 57 55 53 46 50 48 35 34 34 28 34 39 33 37 35 34 31 28 28 25 26 25 25 25 24 22 20 17 17 24 24 23 21 21 21 20 20 21 20 21 22
51 51 52 57 55 54 53 50 50 49 37 33 31 35 36 37 32 39 36 35 31 27 27 26 26 26 25 23 22 19 22 20 22 21 15 26 17 14 11 10 20 23 25 24 24
49 50 50 54 55 53 53 53 52 48 29 34 32 40 37 30 33 37 37 35 28 28 25 24 27 27 26 23 22 24 27 24 25 24 27 20 20 17 14 11 13 17 19 24 31
46 48 49 54 55 55 55 54 53 38 29 32 35 34 31 32 34 36 34 34 34 29 30 29 31 29 27 29 29 30 29 27 28 26 21 20 16 10 9 10 11 15 19 26 29
45 46 46 48 51 55 56 52 38 32 37 32 32 34 32 29 31 32 31 29 26 24 24 27 27 30 31 28 30 29 22 17 21 23 16 21 16 13 15 15 15 16 20 28 29
44 44 47 44 51 55 53 44 31 37 35 35 34 33 31 30 29 31 31 27 28 23 18 19 21 28 29 28 27 28 22 21 16 20 19 22 17 18 18 19 22 22 24 33 33
43 43 43 48 49 53 47 33 35 35 35 34 33 30 31 31 30 29 29 28 28 26 20 17 18 27 28 27 27 27 24 26 21 19 20 18 16 16 22 19 20 22 22 23 29
40 40 39 46 49 51 43 34 36 37 36 37 32 33 30 30 29 28 27 28 28 29 27 23 19 28 29 29 28 27 27 22 22 15 14 12 11 12 19 20 22 21 28 30 32
41 34 41 46 50 45 35 36 35 34 36 36 36 33 33 31 29 28 28 26 28 28 29 26 26 27 28 26 24 25 22 24 22 22 20 14 12 14 17 23 24 28 30 35 38
39 27 43 48 41 40 36 35 36 34 38 37 36 35 35 36 33 35 33 34 31 30 28 30 29 24 24 27 29 25 21 23 22 20 22 23 15 20 21 26 28 27 28 28 31
31 32 44 47 31 33 34 34 36 35 33 34 35 35 34 35 36 35 35 36 33 36 37 35 33 24 25 28 28 26 25 24 23 24 24 20 17 17 21 23 24 26 30 30 36
35 27 35 41 37 31 30 30 30 34 34 34 33 33 33 32 35 33 35 37 37 37 40 39 36 32 24 30 32 25 25 26 25 24 21 22 21 22 22 23 24 26 29 30 31
37 29 31 28 28 33 31 27 27 28 33 33 33 35 33 31 31 32 34 36 37 40 39 38 33 34 34 34 33 34 36 33 31 30 25 23 22 24 24 25 26 28 30 30 30
34 30 31 31 29 28 31 26 26 26 28 29 30 32 33 32 30 30 33 34 33 36 35 38 33 34 32 34 34 32 32 31 30 29 28 28 27 27 27 28 28 28 30 30 31
40 38 35 28 28 27 28 27 25 26 27 27 28 28 26 29 33 34 35 38 38 36 37 37 34 32 27 30 31 30 31 31 31 31 30 26 26 28 30 31 32 32 32 32 33

GFSSW_sfc_dewp_063.txt.gz
Dewpoint
56 58 58 58 58 58 58 58 58 58 58 58 59 60 60 60 59 54 41 46 50 56 53 34 33 31 31 32 30 25 20 18 20 17 20 22 21 21 24 25 27 32 37 41 50
56 58 57 57 58 57 57 57 57 57 58 58 58 59 60 60 54 46 52 57 56 56 39 30 27 27 27 31 29 24 18 18 19 19 20 21 21 20 19 21 25 31 40 49 56
57 57 57 57 57 57 56 57 57 57 57 58 58 59 60 58 46 40 56 57 57 52 39 34 27 24 25 27 26 24 21 19 24 26 24 22 19 20 18 19 20 27 41 51 54
57 57 56 56 56 56 56 56 57 57 57 58 58 59 59 53 25 41 56 56 56 43 37 31 26 21 20 20 25 19 20 19 29 31 25 23 23 20 19 19 24 25 44 50 52
57 57 56 55 55 56 56 56 57 57 57 57 58 59 53 41 40 41 53 51 41 38 32 28 24 23 17 20 19 17 19 22 28 27 25 26 24 22 21 22 23 31 42 49 51
57 57 56 56 56 56 55 56 56 56 57 57 58 59 45 33 45 38 38 39 37 35 29 27 24 22 21 21 17 25 24 22 26 26 26 24 23 24 22 24 23 26 35 45 49
57 57 57 56 55 55 56 56 56 56 56 57 58 51 35 35 43 36 37 38 37 35 30 32 29 24 24 23 28 25 19 21 23 24 25 26 13 19 22 24 22 23 24 32 41
57 56 56 56 56 56 56 56 57 57 57 56 58 46 30 43 44 36 36 35 35 35 33 33 32 31 29 28 24 21 19 17 21 25 27 18 7 14 19 21 21 21 22 24 26
57 56 56 56 56 56 56 57 57 57 56 57 47 37 29 48 39 38 36 33 34 33 31 29 33 28 27 22 20 23 10 13 21 23 26 23 15 23 24 20 19 20 22 22 22
57 57 57 56 56 56 57 57 57 54 53 48 36 22 32 36 43 38 35 35 33 32 29 31 28 26 24 18 9 16 15 14 13 22 24 24 23 24 25 24 23 21 22 21 20
55 57 57 57 57 57 55 48 36 31 38 25 27 25 36 40 43 38 36 32 32 29 23 27 21 18 18 18 16 16 16 15 21 24 22 22 22 23 23 21 21 24 24 24 24
53 54 56 58 57 57 54 47 36 38 28 32 30 32 38 40 36 37 36 28 28 22 26 21 16 20 21 21 19 20 18 16 21 25 21 19 19 20 21 20 19 18 21 23 23
53 52 54 58 57 55 53 47 48 46 31 33 33 30 33 38 33 36 33 32 29 25 26 21 22 22 24 23 20 20 18 17 17 22 20 24 17 17 19 23 22 21 22 22 22
51 51 51 55 54 54 52 49 50 47 35 33 30 33 37 36 33 39 36 32 29 27 27 26 27 24 24 22 20 18 23 21 21 18 12 23 12 19 13 9 11 16 21 22 23
49 49 50 53 54 53 54 53 51 47 23 32 32 40 37 27 32 36 36 33 27 27 24 23 24 24 23 22 22 20 26 22 24 23 25 24 16 17 18 11 11 12 17 22 28
46 48 49 53 53 55 56 55 52 35 25 32 35 34 29 32 35 35 33 33 33 28 28 26 30 27 25 29 27 29 27 26 28 24 17 20 14 11 7 8 11 15 22 27 32
44 45 46 49 51 53 56 51 37 31 35 33 33 33 30 28 32 32 30 29 24 24 24 27 26 30 29 26 28 26 18 13 16 21 14 20 16 12 13 15 14 14 18 35 36
43 43 47 47 50 53 53 43 31 34 34 35 34 33 30 28 30 31 29 27 28 23 22 22 17 27 29 26 25 26 18 16 11 18 15 20 16 14 19 18 20 21 23 27 29
44 42 41 48 49 53 47 33 34 35 36 34 32 31 30 30 29 29 29 28 27 26 16 18 17 28 29 28 24 25 24 24 20 16 18 16 17 15 20 17 18 17 22 30 31
39 39 38 49 51 51 41 34 37 38 37 34 31 31 29 29 28 27 28 28 29 27 25 22 19 28 28 27 28 25 26 21 23 11 11 12 11 14 15 13 14 25 29 30 32
38 32 39 46 50 45 34 37 37 37 36 38 36 33 31 30 29 27 27 27 29 29 26 25 25 25 26 25 24 24 22 23 22 23 16 13 11 14 13 19 25 29 30 31 31
36 25 41 46 40 40 37 35 36 34 38 37 39 37 37 33 29 29 29 30 31 29 27 30 27 24 22 26 27 24 22 24 21 18 21 21 14 21 26 27 27 26 28 30 31
31 31 42 46 31 33 35 36 36 34 35 36 35 36 34 36 36 35 35 36 34 34 31 32 31 20 23 26 28 25 25 23 24 24 21 18 15 19 23 24 25 27 28 29 34
32 26 34 38 36 32 31 31 33 36 36 35 34 35 34 35 37 37 37 35 36 38 41 39 34 27 21 27 31 27 31 31 25 22 21 21 18 20 21 24 25 26 27 30 30
34 27 30 26 28 32 32 31 29 30 34 35 33 34 33 31 32 34 36 35 37 41 39 38 33 34 32 33 35 35 35 35 33 30 28 25 28 27 28 28 27 27 28 29 31
30 27 29 29 26 29 30 29 28 29 31 31 31 34 35 33 32 30 34 35 34 37 38 38 32 35 32 34 35 34 34 33 34 33 29 27 27 29 29 29 29 28 30 32 32
40 35 31 27 27 26 24 28 25 28 29 30 30 30 28 31 34 35 37 38 37 36 37 37 34 32 28 31 32 29 30 31 31 31 29 27 29 30 29 29 33 33 34 34 35

GFSSW_sfc_dewp_069.txt.gz
Dewpoint
56 57 58 59 59 59 59 59 58 59 59 59 59 59 59 59 58 53 41 42 44 54 53 32 31 29 32 29 28 25 20 19 16 17 20 20 21 22 25 26 33 32 44 45 57
56 57 58 58 58 58 58 58 58 57 58 58 58 59 59 59 51 43 52 55 57 54 34 28 27 28 28 29 27 21 19 17 17 18 20 21 20 21 27 25 35 37 45 50 57
57 57 57 58 58 58 57 57 57 57 57 58 58 58 58 57 42 37 53 55 56 51 34 29 27 26 26 27 28 23 13 15 21 22 22 22 20 21 21 28 23 27 41 53 55
57 57 58 58 57 57 57 56 56 57 56 57 58 58 58 53 14 40 53 54 55 42 35 27 24 20 23 23 26 19 21 18 26 27 22 20 21 19 18 18 21 27 45 53 56
56 57 58 57 57 57 56 56 56 56 56 57 58 58 54 41 37 40 52 50 38 37 30 24 21 19 20 19 19 18 18 25 27 25 23 24 21 20 20 20 25 28 49 53 56
57 57 57 56 56 56 56 55 55 56 56 56 58 58 46 25 43 38 38 38 36 32 29 25 21 21 19 19 19 17 21 24 26 23 24 21 20 30 18 23 22 39 47 51 55
57 57 57 56 56 55 55 56 56 57 57 56 57 52 37 30 42 36 37 36 35 31 27 29 25 19 21 23 25 20 15 19 22 24 23 23 11 19 20 19 23 29 44 49 52
57 57 57 56 56 55 56 56 56 57 57 56 57 47 26 42 42 36 35 33 34 33 30 30 31 29 23 24 22 17 14 5 11 24 25 11 -3 5 21 23 17 22 27 39 47
56 56 56 56 56 56 56 57 57 56 55 56 46 33 25 47 35 36 34 32 32 31 31 30 29 27 22 18 14 17 2 12 10 24 25 18 11 13 23 22 21 20 21 23 27
56 56 56 56 56 56 56 57 57 53 51 47 35 21 35 37 41 36 34 33 30 30 28 27 26 22 20 9 -0 13 15 14 12 19 23 23 20 21 22 23 21 21 21 21 21
57 57 57 57 56 57 54 40 25 28 37 22 24 26 35 41 40 34 35 31 30 22 22 26 19 14 17 14 6 13 13 12 18 23 22 20 21 21 21 21 21 21 21 21 22
56 57 58 57 57 57 53 33 28 30 24 31 31 36 39 40 33 34 34 26 25 20 24 20 17 18 18 19 17 16 15 19 19 24 22 20 19 20 20 20 19 18 17 18 20
52 53 55 58 57 54 51 49 47 44 23 30 30 33 35 37 32 31 30 29 22 24 19 15 16 20 20 19 16 16 15 15 12 20 18 15 9 8 11 20 20 19 21 20 20
51 51 52 57 54 53 51 54 50 46 25 26 30 28 36 36 34 38 33 30 27 22 22 17 24 21 22 21 18 17 19 18 19 14 8 18 3 12 14 16 14 12 10 12 14
48 50 51 55 53 52 54 55 52 40 15 25 30 37 36 29 32 35 36 31 26 25 23 19 23 22 21 19 19 18 23 20 21 20 22 19 11 11 13 11 9 10 19 26 28
45 47 50 53 54 53 55 53 48 33 19 30 33 32 29 32 34 34 33 31 29 27 26 24 29 24 21 28 23 27 22 22 26 18 11 16 10 5 4 6 22 18 23 26 26
45 46 48 49 51 53 54 48 35 22 29 31 31 30 28 30 32 31 29 28 24 22 22 25 25 29 28 25 27 19 12 9 8 15 9 18 15 12 12 14 13 14 19 25 30
44 47 47 48 51 52 52 41 26 28 30 34 33 28 25 29 30 30 28 26 27 22 23 22 20 27 28 24 24 19 13 12 4 9 8 19 16 12 18 19 20 23 31 32 31
42 43 44 48 50 52 47 35 28 33 34 33 30 25 27 27 29 28 28 26 26 24 16 19 16 28 28 27 25 23 16 16 17 12 16 12 13 11 17 17 27 29 30 30 31
38 39 40 50 51 49 41 36 37 39 36 33 29 30 28 27 27 26 27 27 26 27 22 20 16 27 27 27 27 23 25 19 19 5 5 7 10 7 11 24 27 27 29 29 30
37 29 40 50 50 42 33 37 38 39 39 33 32 31 30 27 28 26 26 27 28 27 23 21 23 24 26 25 24 23 22 21 20 17 11 9 7 12 15 26 26 26 27 29 30
35 22 40 49 39 36 34 37 39 39 39 39 38 34 30 29 28 27 27 26 29 27 24 25 24 24 24 26 27 27 22 21 18 16 20 18 14 22 26 27 27 27 27 29 35
32 30 41 45 33 33 37 38 39 38 39 39 38 38 37 30 29 29 29 33 31 29 27 28 26 21 23 24 28 24 23 23 22 23 20 17 16 22 25 25 27 27 30 28 32
31 27 32 39 38 36 36 37 37 41 40 40 38 39 38 37 38 35 33 36 36 37 40 34 28 23 19 22 25 23 24 24 22 21 19 19 16 21 23 26 29 29 29 30 31
31 26 29 26 32 33 35 37 36 35 39 40 37 38 38 36 37 36 37 36 38 39 38 33 27 29 31 33 32 31 29 31 22 21 20 20 18 19 24 30 29 29 30 34 35
29 27 30 27 29 32 32 32 34 34 35 35 34 36 37 36 37 36 37 38 37 37 37 36 31 32 30 33 33 30 33 33 32 31 32 31 31 32 32 30 30 31 34 34 34
36 33 30 27 26 30 30 30 31 33 33 34 35 34 36 34 37 38 40 39 39 37 37 36 34 30 28 32 33 30 31 32 32 34 33 30 29 30 29 31 34 34 31 31 32

GFSSW_sfc_dewp_072.txt.gz
Dewpoint
56 57 58 58 58 59 60 60 59 59 59 60 59 60 59 59 58 54 40 40 46 54 51 32 31 29 32 29 26 25 20 20 17 17 21 21 21 22 25 27 32 34 43 45 58
56 56 58 57 58 59 59 59 58 58 58 59 58 59 59 59 51 43 50 55 54 52 32 28 27 29 28 28 26 21 19 18 17 18 19 20 21 21 29 32 34 36 43 50 58
56 57 57 56 58 59 58 58 58 57 57 58 58 58 58 57 44 38 56 54 53 48 33 29 28 27 26 26 27 20 15 16 20 21 21 21 20 21 25 28 24 27 37 53 56
57 57 57 58 58 58 58 57 57 57 57 57 57 58 58 53 18 40 54 54 52 40 32 26 24 22 24 22 26 17 20 18 25 25 21 21 20 20 21 26 21 25 42 54 57
56 57 57 58 58 57 57 56 57 56 56 56 57 58 54 44 40 41 53 51 38 36 28 24 21 21 21 21 20 17 18 24 26 23 22 23 21 20 22 20 24 27 49 54 57
56 56 57 58 57 57 57 56 56 56 55 55 57 58 47 31 41 39 37 38 36 32 27 23 22 20 19 20 20 18 20 24 24 23 24 21 19 32 28 27 21 35 44 51 55
56 56 57 57 56 56 56 55 56 56 56 56 56 52 40 30 41 37 36 35 35 30 27 28 23 20 22 20 24 20 15 17 21 23 23 23 11 20 22 19 22 23 38 47 51
56 56 57 57 56 55 55 56 56 57 57 56 57 47 30 42 41 36 35 33 34 33 29 30 30 27 23 24 20 16 11 7 9 23 24 10 -2 3 20 28 16 19 23 33 46
55 56 57 57 56 56 56 56 57 56 56 56 47 33 23 47 34 35 34 32 31 31 31 29 28 26 21 15 12 15 2 8 6 23 24 15 8 13 23 22 25 22 19 22 27
55 56 56 56 56 56 56 57 56 53 51 48 34 24 36 36 39 35 34 32 29 30 27 26 24 22 19 8 1 9 13 13 13 18 27 26 19 20 21 22 21 20 20 20 21
55 56 56 56 56 56 54 44 31 32 36 24 26 26 34 41 38 34 35 30 26 22 21 25 15 17 17 10 2 11 9 15 24 23 21 20 20 21 21 21 21 20 20 21 21
56 56 57 57 57 57 50 30 28 31 26 32 31 37 40 40 31 33 33 25 23 20 23 20 14 15 19 17 17 15 13 16 18 23 25 21 19 20 20 20 19 18 18 18 18
54 56 57 57 57 54 50 46 48 44 22 28 31 34 37 36 32 31 29 26 22 22 19 15 16 20 18 17 15 16 13 14 11 18 18 13 6 6 9 16 17 17 18 17 16
51 53 54 58 55 53 51 52 52 47 19 23 28 27 37 35 32 38 32 28 23 21 16 14 21 18 20 16 13 12 17 16 19 14 9 19 -0 9 12 14 13 12 18 24 27
48 50 53 56 52 52 52 54 52 35 16 24 29 36 36 28 32 33 35 29 22 24 19 16 22 21 20 18 17 16 22 20 19 20 21 17 9 8 9 7 10 22 24 26 26
48 48 51 53 54 52 54 53 46 28 16 29 32 31 29 32 33 33 32 30 29 26 25 25 31 23 21 27 23 27 20 20 23 17 9 14 9 3 2 4 10 14 18 25 30
47 47 49 50 51 52 53 47 32 21 27 30 28 31 28 30 31 30 29 27 24 21 22 24 25 31 28 25 25 17 11 9 8 13 7 17 14 9 10 13 13 18 23 30 31
46 47 47 49 51 52 50 39 22 25 27 33 31 28 25 29 31 30 28 25 27 23 23 21 19 26 27 23 24 16 12 11 3 7 6 20 14 10 17 19 20 28 32 30 32
44 45 45 48 51 52 46 33 25 29 33 31 26 24 25 27 29 28 27 24 26 24 17 18 15 27 27 26 24 21 13 15 17 11 14 11 12 9 19 27 28 28 29 30 31
40 41 42 48 51 49 43 32 33 37 34 29 25 26 23 25 27 27 27 26 26 25 22 21 16 27 27 26 26 23 22 17 17 4 4 4 9 4 19 26 26 27 28 29 30
36 33 41 49 51 42 36 35 37 39 38 32 31 30 26 26 26 26 25 25 27 27 22 20 23 25 26 24 22 22 20 20 18 16 10 6 5 12 25 25 25 26 29 29 30
34 22 40 48 37 33 34 36 39 38 39 38 35 32 28 28 27 26 24 23 28 27 23 24 25 24 24 26 27 26 21 19 15 14 17 16 10 23 25 26 27 26 27 29 30
32 30 40 45 32 33 36 37 39 39 38 39 38 37 33 29 26 27 28 32 30 27 25 26 24 19 22 25 26 24 24 21 21 23 19 15 14 24 26 27 27 27 28 28 31
30 26 32 38 39 36 36 36 37 41 41 41 38 39 37 34 36 31 31 35 35 31 38 31 25 20 13 18 25 23 23 23 19 20 17 18 18 22 24 27 30 29 29 30 34
30 26 29 27 32 34 38 37 36 36 40 41 38 38 37 36 36 35 35 36 38 39 37 30 25 28 31 29 25 25 24 24 21 18 17 17 18 23 24 24 29 30 32 34 34
28 27 29 27 27 34 34 35 35 36 37 36 35 38 38 36 36 35 36 36 35 37 37 35 30 30 29 32 31 30 30 27 27 30 28 29 26 29 30 31 30 33 34 33 32
34 34 29 27 26 32 33 33 35 36 37 38 37 36 37 38 38 39 41 40 39 37 36 35 32 27 23 31 30 25 30 31 31 32 29 26 26 32 29 30 32 33 30 31 31

GFSSW_sfc_dewp_075.txt.gz
Dewpoint
57 58 58 57 59 59 60 60 61 61 61 61 61 61 60 59 58 55 43 43 45 55 48 33 32 32 34 32 30 29 24 23 23 20 21 25 25 26 27 29 33 41 40 45 59
58 57 57 58 58 59 60 60 61 60 60 61 60 59 59 58 53 45 51 55 57 56 32 30 29 31 30 31 28 24 23 23 20 20 21 23 23 23 26 28 29 33 42 54 60
58 57 57 58 58 59 59 60 60 59 59 59 59 58 58 57 47 40 57 58 56 50 32 30 29 30 29 29 28 24 20 19 21 21 22 22 22 23 24 26 26 28 35 55 59
57 57 57 57 58 59 59 59 58 58 57 58 58 57 57 53 23 39 59 58 55 38 30 28 26 26 27 25 28 20 21 20 28 25 23 22 22 22 24 24 26 25 40 56 58
57 56 57 57 58 58 58 58 57 57 57 57 58 58 54 45 44 43 56 54 40 35 27 26 23 24 22 23 22 21 22 25 26 23 23 23 23 22 21 22 25 30 49 56 58
56 56 56 57 58 58 57 57 57 57 56 57 58 57 48 35 41 40 39 37 35 31 27 25 22 23 21 22 21 21 24 25 24 24 24 21 20 24 20 23 23 32 42 51 57
56 56 56 57 58 57 57 57 56 56 56 56 57 50 41 35 39 38 37 35 36 30 28 27 23 22 23 22 23 20 18 19 22 24 24 23 12 18 21 20 23 23 32 43 52
55 55 56 57 57 57 57 57 57 57 57 57 57 45 34 42 39 36 35 34 34 32 29 30 28 27 24 25 19 15 13 14 15 24 25 12 7 5 22 20 17 20 22 26 41
55 55 56 56 57 57 57 57 57 57 56 57 46 33 25 46 34 36 34 32 31 32 31 28 29 25 21 15 15 15 9 9 10 24 25 16 9 16 24 22 21 21 21 20 23
55 55 56 56 56 56 57 56 57 54 51 49 34 28 35 38 37 34 35 31 30 30 27 26 24 22 16 11 9 12 4 12 4 19 23 22 19 19 21 22 21 21 21 22 22
55 55 56 56 56 56 56 50 35 32 36 28 28 26 33 40 36 34 34 29 26 22 22 25 19 17 16 8 5 10 4 7 16 24 23 21 20 20 21 22 21 21 21 21 22
55 55 56 56 57 57 45 32 30 31 27 32 30 37 40 38 30 32 32 25 23 20 22 19 15 17 18 16 13 12 13 15 22 24 22 21 19 20 20 21 21 20 19 20 20
55 55 56 57 57 54 49 44 48 41 22 28 32 35 37 36 31 31 28 25 22 22 19 15 16 20 18 17 15 16 12 15 13 19 18 13 5 5 11 16 16 16 18 20 19
54 55 56 57 54 53 50 52 51 44 24 22 28 29 37 33 31 37 32 25 22 20 15 14 21 17 17 15 15 14 16 17 18 14 5 15 -3 9 12 11 18 25 26 27 28
50 52 54 56 51 51 51 53 51 32 16 24 28 35 36 28 31 32 35 27 21 22 16 16 19 20 17 13 13 14 20 20 19 20 17 16 8 7 8 7 18 19 23 27 30
49 50 54 54 54 52 54 52 44 29 17 27 31 31 29 32 33 33 31 29 28 25 25 25 28 22 20 25 22 26 19 18 22 16 9 15 8 3 2 7 13 16 24 31 32
48 49 50 51 51 53 53 45 31 22 26 29 27 31 28 30 31 29 28 26 22 17 17 24 25 28 27 24 25 18 12 10 11 13 7 16 14 8 10 13 16 18 29 31 34
47 47 48 50 51 53 48 37 19 25 25 32 31 28 25 29 31 30 27 24 26 22 22 20 18 26 27 24 23 16 11 12 4 8 7 20 13 10 17 22 22 29 30 33 33
45 45 46 48 51 52 45 29 23 26 32 28 26 23 25 28 29 28 27 23 25 23 14 17 14 27 27 26 24 19 12 15 17 11 13 12 13 10 26 27 28 29 31 31 31
42 42 43 48 51 49 40 29 27 32 32 27 23 25 22 26 27 26 26 26 25 24 22 20 17 27 27 26 25 19 20 15 16 5 4 2 8 6 23 26 27 28 29 30 31
38 37 42 48 50 42 35 30 36 39 34 29 27 27 23 25 26 25 26 25 26 26 20 19 23 25 26 24 22 20 18 18 16 15 10 6 4 12 21 26 27 28 29 30 31
33 31 41 48 35 34 36 36 39 38 39 38 33 31 25 26 27 26 25 23 28 26 20 23 26 25 24 26 27 23 19 17 14 13 15 14 7 21 26 26 27 27 29 30 31
31 31 41 45 31 32 34 37 39 37 37 38 36 34 31 27 24 26 26 30 29 26 23 25 25 23 23 24 26 23 22 18 19 22 19 14 11 26 27 27 27 28 29 30 34
30 26 33 39 37 35 34 36 37 40 39 39 38 38 33 29 34 27 28 34 31 28 36 30 24 20 12 16 24 23 23 21 17 18 17 16 20 24 26 28 29 29 30 34 35
31 27 29 29 32 35 37 36 36 36 40 41 38 37 34 32 34 31 34 35 36 39 33 26 23 22 28 24 24 23 23 22 18 14 14 14 20 23 26 27 30 30 32 34 33
30 27 30 26 27 34 36 35 35 37 38 37 36 37 38 35 32 34 35 35 34 36 34 34 26 29 28 31 30 25 24 23 21 20 23 19 17 24 26 27 29 31 34 33 32
33 33 29 28 28 33 33 35 36 38 39 39 38 37 38 38 38 40 40 39 37 36 35 32 30 23 19 30 28 22 27 24 24 28 22 23 22 31 30 27 31 33 34 32 31